This is the latest recevied weather packets stored in our database for station/object SQ6XL-13. If no packets are shown the sender has not sent any weather packets the latest 10 day(s).
| Time | Temp. | Humidity | Pressure | Rain* | Wind** | Luminosity | Snow |
|---|---|---|---|---|---|---|---|
| 1777761247 | 6.11° C | 78% | 1019.2 hPa | 0 mm | - | - | - |
| 1777760697 | 6.11° C | 78% | 1019.2 hPa | 0 mm | - | - | - |
| 1777760186 | 6.11° C | 78% | 1019.2 hPa | 0 mm | - | - | - |
| 1777759587 | 6.11° C | 77% | 1019.4 hPa | 0 mm | - | - | - |
| 1777759002 | 6.11° C | 76% | 1019.3 hPa | 0 mm | - | - | - |
| 1777758447 | 6.67° C | 76% | 1019.2 hPa | 0 mm | - | - | - |
| 1777757937 | 6.67° C | 76% | 1019.3 hPa | 0 mm | - | - | - |
| 1777757377 | 6.67° C | 75% | 1019.4 hPa | 0 mm | - | - | - |
| 1777756882 | 7.22° C | 74% | 1019.4 hPa | 0 mm | - | - | - |
| 1777756327 | 7.22° C | 74% | 1019.4 hPa | 0 mm | - | - | - |
| 1777755727 | 7.22° C | 73% | 1019.5 hPa | 0 mm | - | - | - |
| 1777755127 | 7.78° C | 73% | 1019.6 hPa | 0 mm | - | - | - |
| 1777754567 | 7.78° C | 72% | 1019.7 hPa | 0 mm | - | - | - |
| 1777753997 | 8.33° C | 72% | 1019.7 hPa | 0 mm | - | - | - |
| 1777753502 | 8.33° C | 70% | 1019.9 hPa | 0 mm | - | - | - |
| 1777753019 | 8.33° C | 69% | 1019.8 hPa | 0 mm | - | - | - |
| 1777752500 | 8.89° C | 69% | 1019.9 hPa | 0 mm | - | - | - |
| 1777751982 | 8.89° C | 68% | 1020 hPa | 0 mm | - | - | - |
| 1777751452 | 9.44° C | 67% | 1020 hPa | 0 mm | - | - | - |
| 1777750931 | 9.44° C | 67% | 1020 hPa | 0 mm | - | - | - |
| 1777750337 | 10° C | 66% | 1020.1 hPa | 0 mm | - | - | - |
| 1777749747 | 10.56° C | 64% | 1020 hPa | 0 mm | - | - | - |
| 1777749247 | 11.11° C | 62% | 1020 hPa | 0 mm | - | - | - |
| 1777748657 | 11.67° C | 60% | 1020 hPa | 0 mm | - | - | - |
| 1777748077 | 12.22° C | 59% | 1020 hPa | 0 mm | - | - | - |
* Rain latest hour (hover to see other rain measurements)
** Current wind speed in m/s (hover to see current wind gust speed)